User: anonymous   Login
Location: Tel Aviv
(32.0670°N, 34.7670°E)
Time: 23:14:58
(UTC+02:00)
Language:

Explorer 11/Cluster Stage 4 - Orbit

View from above orbital plane
View from above orbital plane
View from above satellite
View from above satellite

Ground track
Ground track

The orbit data is extracted from the following two-line orbital elements,

1   107U 61013A   22025.39375359  .00000598  00000-0  62639-4 0  9996
2   107  28.7868 105.4419 0544646  69.7137 296.1112 14.09526437 48640
Epoch (UTC): 25 January 2022 09:27:00
Eccentricity: 0.0544646
inclination: 28.7868°
perigee height: 467 km
apogee height: 1255 km
right ascension of ascending node: 105.4419°
argument of perigee: 69.7137°
revolutions per day: 14.09526437
mean anomaly at epoch: 296.1112°
orbit number at epoch: 4864

The dashed part of the orbit path shows where the satellite is in the earth's shadow,  

DLR